Location: Hilton Head Island
(32.2163°N, 80.7526°W)
Time: 16:12:50
(UTC-05:00)

Explorer 11/Cluster Stage 4 - Pass Details

Date: 23 February 2026
Orbit: 463 x 1176 km, 28.8° (Epoch: 6 March)

Event Time Altitude Azimuth Distance (km) Brightness Sun altitude
Rises 12:51:28 0° 264° (W) 3,233 9.8 48.0°
Reaches altitude 10° 12:54:12 10° 260° (W) 2,179 9.1 47.9°
Maximum altitude 12:59:07 56° 183° (S) 725 9.0 47.8°
Drops below altitude 10° 13:03:11 10° 104° (ESE) 1,801 8.6 47.7°
Sets 13:05:16 0° 100° (E) 2,619 9.3 47.6°
